Вернуться в каталог

DMSP 5D-3 F17 DEB

АктивенSSO
NORAD 29637·DEBRIS·🇺🇸 United States

Запущен Nov 4, 2006 с Vandenberg Space Force Base

Loading…

Ближайшие Пролёты (ближайшие 24 часа)

TLE

СвежийSource: Space-Track

Эпоха: Sep 14, 2026, 09:52 UTC

1 29637U 06050BV  26257.41140059  .00002472  00000-0  72415-3 0  9991
2 29637  98.5093 302.3358 0008081 183.1195 176.9947 14.44780221 28064

Отслеживайте DMSP 5D-3 F17 DEB в реальном времени с AllMySat

Download on the App Store